This is the latest recevied weather packets stored in our database for station/object KD7ECD. If no packets are shown the sender has not sent any weather packets the latest 10 day(s).
| Time | Temp. | Humidity | Pressure | Rain* | Wind** | Luminosity | Snow |
|---|---|---|---|---|---|---|---|
| 1778029319 | 15.56° C | 78% | 1018.2 hPa | 0 mm | - | 69 W/m² | - |
| 1778028719 | 15.56° C | 77% | 1017.9 hPa | 0 mm | - | 79 W/m² | - |
| 1778028119 | 15.56° C | 76% | 1018.2 hPa | 0 mm | - | 96 W/m² | - |
| 1778027517 | 15.56° C | 76% | 1018 hPa | 0 mm | - | 108 W/m² | - |
| 1778026915 | 15.56° C | 77% | 1018.1 hPa | 0 mm | - | 131 W/m² | - |
| 1778026314 | 15.56° C | 77% | 1018 hPa | 0 mm | - | 139 W/m² | - |
| 1778025708 | 15.56° C | 77% | 1017.7 hPa | 0 mm | - | 170 W/m² | - |
| 1778025109 | 15.56° C | 77% | 1017.7 hPa | 0 mm | - | 177 W/m² | - |
| 1778024508 | 15.56° C | 78% | 1017.8 hPa | 0 mm | - | 149 W/m² | - |
| 1778023909 | 15° C | 78% | 1017.9 hPa | 0 mm | - | 191 W/m² | - |
| 1778023303 | 15° C | 79% | 1017.9 hPa | 0 mm | - | 180 W/m² | - |
| 1778022699 | 15.56° C | 78% | 1018.2 hPa | 0 mm | - | 197 W/m² | - |
| 1778022099 | 15° C | 79% | 1018.3 hPa | 0 mm | - | 211 W/m² | - |
| 1778021497 | 15.56° C | 79% | 1017.9 hPa | 0 mm | - | 219 W/m² | - |
| 1778020898 | 15° C | 79% | 1017.9 hPa | 0 mm | - | 262 W/m² | - |
| 1778020296 | 15° C | 79% | 1018.2 hPa | 0 mm | - | 275 W/m² | - |
| 1778019695 | 15° C | 81% | 1018.1 hPa | 0 mm | - | 263 W/m² | - |
| 1778019094 | 14.44° C | 81% | 1018.3 hPa | 0 mm | - | 262 W/m² | - |
| 1778018495 | 14.44° C | 81% | 1018.1 hPa | 0 mm | - | 226 W/m² | - |
| 1778017890 | 14.44° C | 82% | 1018.2 hPa | 0 mm | - | 200 W/m² | - |
| 1778017290 | 14.44° C | 81% | 1018.2 hPa | 0 mm | - | 169 W/m² | - |
| 1778016690 | 14.44° C | 82% | 1018.3 hPa | 0 mm | - | 168 W/m² | - |
| 1778016090 | 14.44° C | 82% | 1018.3 hPa | 0 mm | - | 167 W/m² | - |
| 1778015490 | 14.44° C | 83% | 1018.5 hPa | 0 mm | - | 186 W/m² | - |
| 1778014889 | 13.89° C | 83% | 1018.6 hPa | 0 mm | - | 226 W/m² | - |
* Rain latest hour (hover to see other rain measurements)
** Current wind speed in m/s (hover to see current wind gust speed)